sat.trackr.live / text

‹ back to catalog

STARLINK-37551

NORAD 68907 · 2026-097N

PAYLOAD ACTIVE UNKNOWN

§ Identity

Operator
Country
US
Launch date
2026-04-30
Launch site
AFWTR
Launch vehicle
Mass (kg)
RCS (m²)

Purposes: comms

External: N2YO · Heavens-Above · Gunter

§ Orbital elements

Epoch: 2026-09-19T07:08:21.511680Z

Period
93.91 min
Inclination
97.2843°
Eccentricity
0.0001612
Mean motion
15.33433240 rev/d
Perigee alt
464.5 km
Apogee alt
466.7 km
Semi-major
6,843.7 km
B*
5.8895e-4
RAAN
96.3962°
Arg perigee
100.8318°
Mean anomaly
259.3106°
Rev number
2,190

§ Raw data

STARLINK-375511 68907U 26097N   26262.29747120  .00018980  00000+0  58895-3 0  99972 68907  97.2843  96.3962 0001612 100.8318 259.3106 15.33433240 21907

JSON: /api/v1/satellites/68907 · /tle

For live sub-satellite position, see the globe view (requires WebGL).

§ Visibility from observer

Set your observer location to see the next 7 days of passes ≥ 10°. The values pass through the URL so the page stays shareable.

No JS? Fill the form by hand. The geolocation button needs JavaScript.